Regional Weather Roundup
Issued by NWS

Home | Current Version | Previous Version | Graphics & Text | Print | Product List | Glossary On
Versions: 1 2 3 4 5 6 7 8 9 10 11 12 13 14 15 16 17 18 19 20 21 22 23 24 25 26 27 28 29 30 31 32 33 34 35 36 37 38 39 40 41 42 43 44 45 46 47 48 49 50
000
ASUS43 KLSX 282307
RWRMO

WEATHER SUMMARY FOR MISSOURI
NATIONAL WEATHER SERVICE SPRINGFIELD MO
500 PM CST SAT FEB 28 2015

NOTE: "FAIR" INDICATES FEW OR NO CLOUDS BELOW 12,000 FEET WITH NO
       SIGNIFICANT WEATHER AND/OR OBSTRUCTIONS TO VISIBILITY.
       CURRENT SKY AND/OR WEATHER CONDITIONS ARE NOT AVAILABLE FOR
       CHILLICOTHE AND FARMINGTON.

MOZ001>031-035>038-043-044-053-054-010000-
...NORTHERN AND WESTERN MISSOURI...

CITY           SKY/WX    TMP DP  RH WIND       PRES   REMARKS
KANSAS CTY INT CLOUDY    23  18  81 SE7       30.37F WCI  15
KANSAS C DTWN  LGT SNOW  25  18  74 SE6       30.40F WCI  18
LEE`S SUMMIT   LGT SNOW  22  17  81 SE6       30.39F WCI  14
ST JOSEPH      LGT SNOW  24  18  77 SE7       30.40F WCI  16
CHILLICOTHE      N/A     23  18  81 SE7       30.43F WCI  15
KIRKSVILLE     LGT SNOW  20  18  92 SE7       30.44F FOG     WCI  11

$$
MOZ066>068-077>081-088>096-101>105-010000-
...SOUTHWEST MISSOURI...

CITY           SKY/WX    TMP DP  RH WIND       PRES   REMARKS
SPRINGFIELD    LGT SNOW  24  21  88 SE12      30.35F FOG     WCI  13
JOPLIN         SNOW      25  22  88 E6        30.36F VSB 1/2 WCI  18

$$
MOZ032>034-039>042-045>050-055>058-069>072-010000-
...CENTRAL MISSOURI...

CITY           SKY/WX    TMP DP  RH WIND       PRES   REMARKS
COLUMBIA       LGT SNOW  23  21  92 E6        30.43S VSB 3/4 WCI  16
JEFFERSON CITY SNOW      24  22  91 E5        30.45F VSB 1/2 WCI  18
ROLLA          SNOW      24  21  88 E8        30.38F VSB 1/2 WCI  15
SEDALIA        LGT SNOW  24  21  88 SE5       30.41F VSB 3/4 WCI  18
WHITEMAN AFB   LGT SNOW  23  20  89 E5        30.40S VSB 1   WCI  17
WARRENSBURG    LGT SNOW  23  21  93 CALM      30.41F
OSAGE BEACH    CLOUDY    25  21  86 E5        30.41S VSB 3/4 WCI  19

$$
MOZ051-052-059>065-010000-
...EAST CENTRAL MISSOURI...

CITY           SKY/WX    TMP DP  RH WIND       PRES   REMARKS
ST LOUIS INTL  SNOW      25  21  85 E7        30.48F VSB 1/2 WCI  17
SPIRIT OF STL  SNOW      24  22  91 CALM      30.47S VSB 1/2
ST CHARLES     SNOW      24  22  91 E5        30.49S VSB 1/2 WCI  18

$$
MOZ072>076-082>087-097>100-106>115-010000-
...SOUTH CENTRAL AND SOUTHEAST MISSOURI...

CITY           SKY/WX    TMP DP  RH WIND       PRES   REMARKS
CAPE GIRARDEAU CLOUDY    33  18  53 NE8       30.44F WCI  26
FARMINGTON     CLOUDY    25  23  93 E5        30.46R VSB 1/2 WCI  19
POPLAR BLUFF   CLOUDY    29  18  63 N7        30.46R WCI  22
WEST PLAINS    LGT SNOW  25  20  81 NE6       30.39S WCI  18

$$



USA.gov is the U.S. government's official web portal to all federal, state and local government web resources and services.